Location: East Twin Lake Wildlife Management Area
(42.9347°N, 93.7072°W)
Time: 11:59:45
(UTC+00:00)

Daily predictions for brighter satellites

Satellite Brightness Start Highest point End
(mag) Time Altitude Azimuth Time Altitude Azimuth Time Altitude Azimuth
Nadezhda 4 Rocket 4.2 12:00:23 10° NNW 12:06:08 43° W 12:11:54 10° SSW
Cosmos 1624 Rocket 4.5 12:03:55 19° NW 12:07:10 38° WSW 12:11:55 10° SSW
Cosmos 1943 Rocket 4.2 12:04:51 10° N 12:09:05 22° NE 12:13:18 10° E
SKYMED 2 4.2 12:05:54 10° SSW 12:09:51 34° W 12:13:04 14° NW
Cosmos 1634 Rocket 4.0 12:04:03 10° S 12:10:13 90° ESE 12:16:29 10° N
Milstar 3 Cent rocket 4.4 12:06:49 10° SW 12:10:32 17° S 12:15:32 10° SSE
SKYMED 3 4.4 12:12:20 10° S 12:16:29 73° W 12:20:37 10° NNW
COSMOS 2428 2.7 12:13:02 10° SSW 12:18:43 79° WNW 12:24:28 10° NNE
Cosmos 2333 Rocket 3.0 12:14:24 10° WSW 12:19:20 29° NW 12:24:19 10° N
CZ-4C R/B 4.4 12:13:47 10° NNW 12:19:36 28° NE 12:26:23 10° E
SMAP 3.9 12:17:33 10° NNE 12:22:08 54° E 12:26:41 10° S
NOSS 0 Rocket 4.4 12:19:24 10° SSW 12:25:34 69° ESE 12:31:47 10° NNE
Cosmos 1933 3.8 12:24:43 10° NNW 12:28:23 37° W 12:32:01 10° SSW
SJ-7 4.3 12:24:22 10° N 12:28:28 80° WNW 12:32:33 10° SSW
SL-16 R/B 4.0 12:27:49 11° NW 12:28:29 11° NW 12:30:17 10° NNW
Cosmos 1844 Rocket 4.3 12:29:02 13° W 12:30:17 13° W 12:32:54 10° SW
Cosmos 1076 Rocket 3.9 12:28:23 10° S 12:32:38 69° E 12:36:57 10° NNE
Lacrosse 5 rocket 1.4 12:28:36 10° SW 12:32:50 74° NW 12:37:13 10° NE
SL-08 R/B 4.2 12:29:53 10° SSW 12:33:54 27° W 12:37:53 10° NW
COSMOS 2455 4.0 12:30:25 12° WNW 12:34:19 23° WSW 12:38:51 10° SSW
H-2A R/B 3.3 12:31:40 10° NNW 12:34:53 18° WNW 12:38:05 10° WSW
SJ-11-01 4.3 12:30:21 10° N 12:34:57 59° WNW 12:39:33 10° SSW
Cosmos 1515 3.5 12:32:30 10° NNW 12:36:05 64° W 12:39:39 10° S
Cosmos 1544 2.6 12:33:22 10° SSW 12:36:34 76° W 12:39:47 10° N
Cosmos 1953 Rocket 3.7 12:33:52 10° SSW 12:38:13 55° W 12:42:38 10° N
Cosmos 2279 Rocket 4.0 12:32:17 10° S 12:38:33 84° W 12:44:51 10° N
ATLAS 3B R/B 3.9 12:34:12 11° W 12:39:47 25° NNW 12:45:48 10° NNE
CZ-2D R/B 3.6 12:37:07 10° N 12:40:33 39° WNW 12:43:58 10° SW
Meteor 2-3 Rocket 4.3 12:36:11 10° SW 12:41:12 34° WNW 12:46:15 10° N
USA 281 4.1 12:36:46 10° N 12:42:00 26° NW 12:47:12 10° WSW
BREEZE-M DEB (TANK) 3.7 12:39:37 11° NW 12:42:57 53° NNE 12:53:26 10° E
Cosmos 2278 Rocket 2.4 12:38:16 10° NNW 12:43:57 74° ENE 12:49:35 10° SSE
Cosmos 2221 2.8 12:41:35 10° NNW 12:45:36 43° W 12:49:37 10° SSW
USA 215 3.5 12:39:37 10° NE 12:45:54 52° NNW 12:52:10 10° WSW
Cosmos 1110 Rocket 4.1 12:41:51 10° NNW 12:47:08 65° WSW 12:52:22 10° S
SeaSat 1 2.7 12:43:59 10° SE 12:48:51 71° ENE 12:53:46 10° NNW
ARGOS 3.9 12:45:40 10° N 12:50:20 31° WNW 12:54:57 10° SW
Cosmos 1862 3.9 12:47:18 10° SW 12:50:47 32° WNW 12:54:17 10° N
Cosmos 2237 Rocket 2.5 12:45:13 10° SSW 12:50:52 75° ESE 12:56:32 10° NNE
CZ-2C R/B 3.0 12:47:39 10° N 12:51:12 43° WNW 12:54:47 10° SW
Cosmos 1602 4.3 12:47:57 10° S 12:51:32 59° E 12:55:09 10° NNE
Helios 1B rocket 3.0 12:49:42 10° N 12:53:17 33° WNW 12:56:50 10° SW
Cosmos 2322 4.3 12:50:12 10° WSW 12:55:20 34° NW 13:00:29 10° N
CZ-4B R/B 3.8 12:51:48 10° N 12:55:42 71° WNW 12:59:45 10° SSW
Cosmos 1666 2.5 12:53:56 10° S 12:57:28 90° W 13:01:02 10° N
BREEZE-M DEB (TANK) 3.6 13:02:42 10° WSW 13:12:35 56° NNW 13:15:20 10° NE
Helios 1A 4.3 23:11:46 10° NE 23:14:57 21° E 23:18:08 10° SE
SJ-7 4.3 23:11:06 10° SSE 23:15:01 67° ENE 23:19:01 10° N
Cosmos 1500 3.6 23:13:03 10° N 23:16:19 35° ENE 23:19:34 10° SE
YAOGAN 11 4.2 23:12:45 10° NNE 23:17:18 74° ESE 23:21:50 10° S
CZ-2D R/B 3.2 23:15:42 10° SSE 23:19:23 87° W 23:23:04 10° NNW
Cosmos 2082 3.8 23:14:04 10° S 23:19:34 62° ESE 23:25:07 10° NNE
Lacrosse 5 3.9 23:19:16 10° SE 23:20:02 10° ESE 23:20:48 10° ESE
Cosmos 1726 Rocket 4.1 23:16:19 10° SSW 23:20:43 64° W 23:25:08 10° N
NOSS 3-4 (A) 3.9 23:16:31 10° NW 23:23:34 79° NE 23:31:41 10° SE
NOSS 3-4 (C) 3.9 23:16:40 10° NW 23:23:40 80° NE 23:31:40 10° SE
Cosmos 1437 Rocket 2.5 23:20:40 10° N 23:24:22 73° E 23:28:07 10° SSE
SMAP 3.1 23:21:18 10° SSE 23:25:53 61° ENE 23:30:29 10° N
Cosmos-2242 4.0 23:22:59 10° SE 23:26:35 26° E 23:30:11 10° NNE
Cosmos 2237 Rocket 4.5 23:22:53 10° NW 23:27:41 29° WSW 23:32:27 10° SSW
CZ-2C R/B 2.6 23:26:38 10° SSE 23:30:09 84° WSW 23:33:46 10° NNW
CZ-2C R/B 2.8 23:29:03 10° SW 23:30:22 13° S 23:31:40 10° SSE
Cosmos 1140 Rocket 4.4 23:26:24 10° N 23:30:45 26° ENE 23:35:03 10° ESE
USA 305 4.1 23:28:30 10° NNW 23:31:31 21° NNE 23:33:52 13° ENE
USA 234 3.3 23:26:08 10° NE 23:32:42 75° SE 23:39:13 10° SW
Cosmos 2279 Rocket 4.0 23:26:44 10° N 23:33:00 83° E 23:39:14 10° S
Cosmos 1812 3.6 23:33:48 10° SSE 23:36:57 27° E 23:40:05 10° NNE
Cosmos 2151 3.0 23:33:30 10° N 23:37:47 85° W 23:42:03 10° S
Helios 1B rocket 3.6 23:35:18 10° S 23:39:04 44° W 23:42:51 10° NNW
SL-8 R/B 4.0 23:35:10 10° WNW 23:39:49 49° NNE 23:43:40 15° E
Aureole 3 Rocket 4.3 23:36:48 10° NNW 23:41:12 42° W 23:44:34 10° SSW
CZ-4B R/B 3.5 23:38:05 10° SSE 23:41:39 74° ENE 23:45:16 10° N
APEX 4.1 23:40:36 10° SSE 23:42:51 18° ESE 23:43:30 17° E
NOAA 6 4.5 23:42:47 10° SE 23:47:30 38° ENE 23:52:13 10° N
Meteor 1-31 Rocket 2.6 23:44:04 10° SSE 23:47:45 88° ENE 23:51:28 10° NNW
Meteor 1-20 Rocket 4.5 23:44:04 10° N 23:49:21 43° ENE 23:54:42 10° SE
Cosmos 1544 3.9 23:47:12 10° NNW 23:50:20 45° W 23:53:26 10° SSW
Nadezhda 4 Rocket 4.0 23:44:44 10° S 23:50:45 59° E 23:56:46 10° NNE
Cosmos 2263 Rocket 2.2 23:47:03 10° SSW 23:52:36 83° WNW 23:58:13 10° NNE
Tiangong 0.3 23:51:10 10° WSW 23:53:38 21° SSW 23:56:05 10° SSE
Cosmos 1844 Rocket 3.9 23:50:20 10° SSE 23:54:18 20° E 23:55:45 18° E
